Wind_Speed
22 23 23 23 20 22 20 20 23 24 24 22 24 18 17 17 15 9 13 13 7 7 7 14 17 23 25 24 14 11 8 9 8 7 7 6 6 4 7 11 10 13 14 11
23 19 24 22 24 21 20 21 22 23 23 22 20 17 14 11 11 10 12 14 14 6 6 8 8 14 18 17 19 15 15 12 7 8 10 11 13 9 8 6 9 12 15 14
24 21 27 27 25 23 23 22 22 23 23 23 20 16 14 16 14 10 14 9 8 6 11 11 8 4 9 13 16 11 11 11 9 16 16 15 14 17 12 10 11 10 15 15
25 26 27 30 27 25 26 24 22 21 22 19 15 14 17 20 21 24 14 14 11 11 11 13 9 3 3 2 6 10 9 8 4 12 21 24 28 26 16 15 16 16 17 20
27 28 30 32 29 30 26 24 22 20 21 17 12 11 14 14 20 23 25 22 14 11 15 13 7 5 6 8 2 3 9 8 7 10 19 21 24 19 22 19 18 24 28 23
32 32 32 33 31 31 27 24 20 19 23 17 15 17 18 17 20 23 25 24 22 26 20 18 13 7 8 14 13 10 14 17 16 12 12 26 21 20 23 20 21 29 32 28
34 34 34 33 33 31 26 22 19 18 20 18 20 21 19 20 20 20 21 22 30 26 21 22 18 16 9 12 15 16 20 19 11 22 19 18 18 26 41 37 39 36 37 29
34 36 36 34 34 30 28 24 20 20 20 20 20 21 20 22 20 23 23 20 24 24 23 24 22 19 13 17 22 21 17 15 15 15 16 13 23 35 38 34 27 37 34 42
35 37 34 31 31 31 29 26 17 18 21 20 25 20 20 16 19 23 21 20 22 24 26 31 29 18 10 15 19 17 14 11 8 8 11 23 31 28 27 32 31 40 28 27
36 37 35 30 31 32 31 26 23 19 20 21 22 21 20 15 18 20 21 19 21 26 26 30 30 26 22 17 19 24 25 26 30 30 29 26 37 39 38 39 37 43 44 47
39 40 37 32 34 33 29 27 25 22 23 19 22 23 20 17 20 22 22 21 21 25 32 31 29 31 26 26 25 25 31 36 33 31 32 35 42 45 47 47 44 48 51 61
39 39 37 36 34 30 31 31 28 26 25 24 23 27 22 21 20 24 23 23 25 31 37 35 33 31 30 30 34 36 34 35 37 42 47 53 51 53 53 55 55 56 59 61
44 43 39 38 36 34 34 32 32 31 30 28 24 27 25 22 25 25 27 28 27 26 31 37 36 38 39 38 35 34 36 39 41 45 52 50 51 49 51 51 49 52 54 58
47 44 41 39 40 36 32 33 34 32 31 28 27 26 27 26 27 30 29 30 31 31 30 31 36 38 35 32 35 35 36 34 36 45 39 38 38 43 46 46 42 41 43 46
48 46 43 41 40 36 35 36 35 33 32 28 28 27 29 30 32 33 32 30 33 35 35 32 31 33 35 36 38 41 43 35 36 41 45 39 41 45 45 39 39 44 49 51
52 49 47 43 41 39 36 37 36 36 34 31 30 30 30 32 34 37 37 36 36 36 37 38 40 41 40 41 46 46 44 41 42 44 38 38 48 46 40 40 52 61 54 47
54 52 50 47 46 40 37 42 41 38 36 33 32 34 31 34 35 39 42 39 40 39 39 41 43 46 45 45 46 47 44 43 46 45 39 41 43 38 40 45 62 64 47 40
56 55 53 51 49 41 41 42 42 38 36 34 34 34 33 34 35 38 40 43 42 39 39 41 42 44 41 40 39 40 38 39 46 45 42 42 43 49 48 54 61 55 41 38
59 57 55 54 52 44 41 43 44 40 39 38 36 35 35 36 36 38 40 40 41 45 43 44 43 43 41 40 35 34 34 43 42 43 44 41 52 55 60 63 60 42 36 37
61 60 59 57 53 48 48 44 46 41 37 40 38 36 36 37 38 39 42 42 43 46 46 46 43 42 43 43 38 30 40 38 44 46 52 55 63 65 53 43 37 35 40 45
63 61 62 59 54 52 51 47 46 43 40 41 39 37 38 41 41 42 43 43 45 48 47 48 48 45 38 32 37 31 39 43 46 56 65 70 64 53 43 39 37 41 45 49
66 65 63 61 57 54 53 49 46 46 44 42 41 40 46 44 42 44 44 44 44 43 44 45 46 43 37 35 39 49 48 54 56 63 72 67 56 51 42 42 45 49 53 56
67 67 60 60 57 55 53 51 49 50 49 43 43 44 44 41 41 45 43 42 43 43 39 41 46 40 46 39 43 42 48 51 57 67 72 62 59 50 44 46 50 54 57 60
67 68 62 60 60 58 57 55 53 54 51 48 46 44 41 39 41 44 41 44 42 40 29 34 39 34 34 27 38 41 39 46 56 70 74 62 61 48 46 50 54 57 61 65
64 65 63 61 63 63 61 59 58 57 54 50 47 46 42 42 40 39 42 44 39 34 29 31 30 31 29 39 43 42 44 51 59 67 72 58 56 45 48 54 57 61 66 69
60 65 65 63 63 63 63 62 61 58 55 51 48 43 45 41 38 40 42 42 36 23 26 26 32 33 33 39 47 47 48 51 58 67 77 63 55 48 51 57 61 66 70 74
Wind_Direction
250 252 260 264 269 265 279 291 290 297 298 298 301 294 300 293 301 297 319 309 316 4 30 38 19 37 49 45 50 45 39 38 20 20 12 9 3 339 335 356 323 340 349 319
248 253 261 266 266 277 283 290 289 296 294 299 304 296 301 302 290 296 293 271 276 267 309 318 22 14 35 41 44 53 49 48 36 27 10 3 359 314 301 317 312 320 323 317
247 252 259 264 271 278 281 286 290 292 294 306 294 280 276 291 266 287 288 281 275 260 287 279 299 349 38 2 9 46 46 44 74 43 14 357 350 348 326 322 307 300 290 300
243 249 256 265 272 276 280 283 289 292 297 298 289 267 265 272 277 265 277 284 265 284 301 278 247 235 241 58 329 43 22 12 45 342 350 359 360 346 337 342 326 303 289 294
247 250 254 263 270 273 278 285 289 291 299 289 283 278 284 274 263 264 263 276 257 228 284 274 289 294 303 286 319 338 353 334 301 314 3 9 339 350 337 332 323 296 290 282
251 253 257 265 270 275 275 279 285 292 297 283 284 284 282 286 269 262 263 257 227 241 268 250 257 256 281 280 274 293 318 333 329 316 329 328 338 322 317 314 312 301 290 288
254 256 258 261 264 265 272 273 276 278 285 279 283 292 303 300 290 283 276 256 237 247 261 253 251 238 283 265 250 314 321 323 344 326 312 323 338 314 271 280 291 286 276 277
254 255 256 260 265 269 267 265 266 269 277 269 270 286 298 298 292 285 279 265 251 249 241 254 258 244 237 249 270 285 317 300 318 357 323 347 321 302 280 284 261 264 258 273
252 257 259 260 264 266 264 265 263 262 272 262 271 281 289 293 283 279 276 264 257 250 248 255 254 231 251 273 286 270 271 299 294 317 313 308 269 289 290 267 262 246 265 272
250 254 256 254 257 258 262 265 262 258 269 254 258 272 287 293 276 268 269 268 259 247 244 245 243 242 242 255 273 270 269 277 284 283 287 279 283 287 305 292 287 251 251 266
246 249 251 252 251 254 261 261 261 261 269 263 256 259 266 268 256 253 246 250 253 247 250 241 249 252 262 269 267 277 289 290 282 281 281 285 288 296 302 303 289 283 269 263
248 251 251 250 250 252 255 257 261 263 264 258 246 255 258 262 257 261 252 246 252 253 254 252 257 259 267 273 276 282 287 289 293 296 296 293 293 288 297 300 294 282 282 278
244 248 250 253 253 249 250 256 255 255 257 257 248 253 259 262 269 263 257 254 255 250 252 255 263 271 270 277 282 283 293 299 300 298 298 293 294 299 298 295 284 275 273 272
243 246 249 252 254 255 254 253 255 257 257 256 254 256 257 258 261 266 269 275 277 276 273 269 265 268 272 270 278 288 292 292 289 293 298 300 303 298 293 289 286 289 284 279
241 245 248 250 253 251 252 252 254 256 257 255 258 258 255 260 263 267 267 266 269 274 275 265 262 268 276 284 288 292 295 286 290 294 298 296 299 300 292 287 299 303 300 287
237 240 245 249 252 252 250 251 252 253 255 256 255 253 257 262 265 271 274 277 276 278 276 277 277 274 280 284 288 291 294 287 295 305 293 292 297 297 296 302 314 317 312 294
236 237 241 246 250 246 248 251 251 250 251 251 251 253 254 257 265 271 277 276 275 280 282 284 282 280 279 281 284 288 289 289 300 301 290 298 305 295 300 299 310 316 308 296
234 237 239 243 248 250 247 251 253 253 254 252 253 255 256 258 261 264 269 274 280 278 277 276 276 276 277 278 284 282 282 297 311 302 299 304 308 302 300 303 313 313 305 301
232 234 238 240 245 248 250 251 253 252 253 254 254 257 257 258 259 263 267 272 278 278 278 279 282 283 280 277 275 282 306 312 318 311 307 306 315 316 310 304 306 308 307 306
230 232 235 237 242 246 249 247 252 252 254 257 257 259 261 262 262 263 264 267 269 273 276 279 276 278 281 282 290 286 314 314 320 317 318 321 321 321 316 314 311 311 311 310
231 232 233 235 237 242 246 246 250 253 251 255 255 255 256 255 255 259 262 265 267 271 278 281 286 286 292 286 282 305 308 318 318 320 327 321 325 321 319 313 312 312 309 307
232 231 235 238 237 239 244 248 248 250 251 250 256 255 255 259 264 263 266 269 272 274 278 285 288 289 288 282 290 301 303 311 316 328 326 327 323 322 317 316 314 313 312 312
237 240 239 242 243 244 246 247 248 249 251 250 249 253 254 259 259 264 265 271 272 279 282 290 295 295 297 293 296 303 307 315 329 330 329 325 323 317 313 315 314 314 315 316
236 239 238 242 245 244 246 247 247 250 251 250 251 252 255 255 258 261 271 270 274 279 295 295 291 292 295 300 302 304 314 328 326 330 330 324 317 314 312 314 314 316 317 318
238 240 239 238 242 242 241 243 245 248 250 251 251 252 251 252 253 256 263 269 275 280 289 288 294 292 290 296 304 302 312 313 320 327 337 323 319 312 313 314 314 317 318 319
236 238 239 237 239 242 243 242 243 245 248 251 253 252 251 251 256 259 262 267 270 287 276 287 296 296 296 303 295 296 302 308 311 328 337 331 319 311 314 315 316 319 320 321
Height
10946 10946 10946 10946 10949 10949 10953 10955 10952 10952 10952 10953 10952 10952 10951 10952 10953 10955 10956 10958 10959 10959 10958 10957 10957 10956 10954 10954 10952 10951 10951 10950 10951 10948 10947 10947 10947 10946 10946 10946 10944 10944 10943 10941
10942 10945 10942 10944 10944 10948 10950 10950 10949 10949 10948 10947 10947 10948 10949 10949 10951 10953 10955 10954 10954 10956 10955 10956 10955 10955 10955 10953 10950 10948 10948 10947 10946 10945 10944 10943 10944 10943 10942 10942 10942 10941 10938 10936
10939 10942 10938 10938 10941 10944 10945 10945 10946 10945 10944 10944 10943 10944 10946 10947 10948 10949 10952 10953 10954 10955 10955 10954 10953 10954 10950 10952 10949 10946 10945 10942 10942 10944 10944 10944 10942 10941 10939 10940 10940 10941 10939 10936
10935 10937 10936 10934 10937 10940 10940 10941 10942 10942 10941 10940 10941 10942 10943 10944 10944 10944 10946 10949 10950 10952 10953 10951 10952 10951 10951 10947 10947 10945 10944 10941 10941 10940 10941 10940 10940 10938 10938 10938 10939 10940 10937 10936
10930 10932 10931 10931 10933 10934 10937 10937 10938 10938 10936 10936 10938 10940 10940 10941 10940 10940 10941 10945 10947 10948 10949 10949 10949 10950 10950 10949 10946 10944 10943 10942 10939 10938 10938 10937 10935 10933 10935 10934 10937 10938 10935 10933
10924 10926 10927 10927 10930 10930 10933 10934 10935 10934 10933 10933 10934 10935 10936 10936 10935 10936 10938 10940 10942 10942 10945 10945 10946 10947 10946 10945 10945 10944 10944 10943 10940 10937 10938 10934 10935 10932 10934 10932 10933 10934 10933 10933
10918 10921 10922 10923 10923 10926 10929 10930 10930 10930 10929 10928 10927 10928 10930 10929 10927 10929 10931 10932 10934 10938 10941 10942 10942 10942 10942 10942 10941 10940 10942 10943 10939 10938 10935 10934 10934 10937 10928 10927 10927 10922 10925 10923
10912 10914 10915 10918 10918 10923 10925 10927 10928 10928 10925 10924 10923 10925 10926 10924 10923 10923 10924 10926 10929 10932 10936 10937 10938 10938 10938 10938 10937 10937 10939 10940 10939 10934 10931 10934 10930 10926 10925 10924 10916 10915 10916 10915
10905 10905 10910 10914 10914 10915 10918 10921 10926 10926 10925 10923 10920 10921 10921 10923 10920 10916 10919 10923 10926 10927 10930 10932 10934 10932 10932 10932 10932 10933 10935 10935 10935 10932 10929 10927 10926 10926 10923 10919 10913 10908 10906 10906
10899 10898 10902 10908 10909 10908 10910 10914 10917 10920 10921 10922 10920 10919 10917 10919 10917 10916 10914 10916 10919 10921 10925 10925 10927 10929 10928 10927 10929 10929 10930 10929 10928 10925 10923 10919 10915 10914 10913 10911 10908 10903 10898 10899
10890 10891 10895 10900 10901 10903 10906 10908 10910 10913 10913 10917 10918 10916 10916 10917 10916 10916 10914 10915 10916 10916 10918 10920 10922 10924 10924 10923 10925 10924 10924 10923 10922 10920 10917 10914 10908 10904 10902 10897 10893 10889 10887 10883
10885 10886 10888 10890 10893 10898 10899 10901 10904 10906 10907 10910 10912 10909 10912 10912 10913 10911 10913 10915 10915 10914 10913 10914 10915 10918 10917 10917 10917 10916 10915 10913 10911 10907 10905 10902 10897 10895 10890 10886 10881 10875 10869 10865
10873 10877 10881 10882 10886 10889 10891 10895 10896 10899 10901 10903 10907 10904 10904 10906 10904 10905 10907 10908 10909 10909 10908 10908 10908 10908 10908 10906 10906 10906 10904 10903 10902 10899 10896 10890 10883 10879 10875 10873 10868 10863 10857 10851
10865 10868 10872 10875 10877 10881 10886 10886 10887 10891 10894 10897 10899 10901 10901 10900 10898 10896 10898 10897 10899 10902 10902 10902 10901 10901 10901 10899 10898 10898 10898 10896 10895 10892 10883 10877 10872 10868 10863 10859 10854 10850 10844 10838
10855 10859 10862 10865 10868 10874 10876 10877 10879 10882 10885 10889 10892 10895 10894 10894 10891 10890 10891 10894 10893 10892 10893 10895 10895 10895 10895 10893 10891 10890 10889 10888 10886 10881 10875 10869 10864 10861 10856 10849 10841 10835 10829 10824
10844 10849 10852 10856 10858 10863 10866 10866 10870 10873 10876 10880 10883 10886 10887 10886 10885 10883 10884 10886 10886 10885 10884 10886 10886 10885 10886 10885 10883 10882 10880 10878 10874 10869 10865 10860 10855 10850 10843 10833 10826 10819 10812 10807
10832 10837 10842 10845 10847 10854 10858 10856 10860 10864 10869 10873 10874 10875 10879 10880 10880 10877 10875 10876 10877 10878 10877 10877 10877 10876 10877 10877 10875 10873 10872 10869 10864 10858 10853 10847 10840 10835 10827 10821 10816 10807 10799 10793
10818 10824 10831 10835 10837 10845 10846 10849 10851 10858 10861 10865 10867 10868 10870 10873 10873 10871 10869 10866 10867 10868 10869 10867 10867 10866 10867 10866 10865 10864 10864 10859 10853 10847 10842 10837 10831 10823 10815 10809 10801 10793 10787 10782
10803 10810 10817 10822 10827 10834 10839 10840 10842 10847 10851 10854 10858 10860 10862 10862 10863 10861 10859 10858 10857 10854 10856 10857 10858 10857 10858 10859 10859 10859 10854 10848 10843 10837 10832 10826 10819 10811 10801 10793 10786 10779 10775 10772
10790 10797 10803 10809 10816 10824 10825 10832 10832 10838 10844 10842 10847 10851 10852 10853 10852 10852 10848 10848 10847 10845 10845 10845 10847 10847 10847 10850 10850 10846 10842 10837 10833 10827 10819 10810 10802 10793 10785 10779 10773 10768 10765 10761
10778 10785 10789 10796 10804 10811 10813 10819 10823 10829 10833 10832 10836 10840 10840 10838 10839 10840 10840 10840 10839 10837 10838 10839 10839 10841 10840 10839 10838 10837 10835 10828 10820 10812 10803 10794 10787 10779 10773 10768 10764 10759 10754 10749
10765 10771 10779 10786 10793 10799 10802 10808 10814 10816 10820 10824 10825 10828 10825 10829 10833 10831 10832 10833 10834 10834 10834 10834 10832 10832 10833 10832 10831 10829 10821 10814 10807 10798 10791 10782 10775 10770 10762 10757 10752 10745 10739 10733
10758 10764 10775 10779 10786 10791 10793 10798 10803 10806 10808 10813 10815 10816 10819 10822 10822 10821 10823 10824 10823 10824 10824 10824 10819 10824 10824 10822 10819 10815 10808 10802 10794 10786 10779 10772 10764 10757 10752 10746 10740 10734 10727 10718
10744 10751 10763 10770 10773 10779 10782 10787 10791 10792 10797 10801 10804 10806 10809 10812 10813 10811 10815 10813 10813 10813 10814 10813 10812 10812 10808 10809 10806 10802 10794 10789 10785 10778 10771 10762 10753 10746 10741 10735 10729 10722 10713 10704
10732 10738 10747 10756 10757 10760 10768 10773 10776 10779 10783 10789 10794 10797 10799 10799 10801 10803 10802 10801 10804 10805 10807 10805 10803 10801 10801 10798 10794 10788 10785 10781 10776 10772 10763 10751 10742 10736 10731 10726 10718 10709 10699 10688
10715 10721 10729 10738 10742 10746 10753 10759 10763 10768 10773 10779 10784 10789 10789 10790 10794 10794 10794 10795 10797 10798 10798 10795 10797 10794 10790 10788 10784 10780 10774 10771 10771 10763 10753 10742 10734 10728 10721 10714 10705 10695 10684 10670